Вернуться в каталог

YAOGAN-50

АктивенВоенныеLEO
NORAD 67433·PAYLOAD·🇨🇳 China

Запущен Jan 13, 2026 с Taiyuan Satellite Launch Center

Loading…

Ближайшие Пролёты (ближайшие 24 часа)

TLE

СвежийSource: Space-Track

Эпоха: Sep 14, 2026, 13:46 UTC

1 67433U 26006A   26257.57394948  .00000315  00000-0  11480-3 0  9994
2 67433 142.0416 287.7440 0001058 288.2462  71.8142 13.83249634 33812

Отслеживайте YAOGAN-50 в реальном времени с AllMySat

Download on the App Store